Probability
0 0 0 0 0 0 0 0 1 5 13 18 22 25 26 24 23 23 23 24 28 30 32 34 35 37 34 30 31 35 37 36 36 36 36 34 32 30 28 27 27 28 29 28
0 0 0 0 0 0 0 0 1 5 12 18 21 25 26 24 24 25 25 26 29 32 34 36 36 36 35 33 35 38 39 38 39 39 37 34 31 30 29 29 28 28 27 25
0 0 0 0 0 0 0 1 2 6 14 19 21 25 27 27 26 26 27 28 30 31 32 33 34 35 35 37 40 42 41 40 40 39 36 32 29 28 30 30 28 25 23 22
0 0 0 1 1 1 0 0 2 10 19 23 23 26 29 29 27 26 27 28 29 28 26 26 29 32 36 38 40 42 41 39 37 33 30 29 27 28 30 31 28 25 23 21
0 0 1 2 2 1 1 2 5 14 25 29 28 28 30 30 28 25 24 24 24 22 21 21 23 27 31 32 34 36 35 32 30 28 26 26 27 28 29 30 28 27 24 22
0 0 1 2 1 0 3 7 12 19 26 30 28 27 29 30 26 20 18 18 18 17 18 19 19 20 23 25 27 29 28 26 25 25 24 25 26 28 28 26 25 24 24 23
1 1 3 4 3 4 10 16 19 22 26 28 26 27 29 29 24 17 13 13 16 18 19 19 18 17 20 23 26 27 26 25 25 25 24 24 25 27 26 24 22 22 23 22
2 5 9 9 9 12 18 22 23 26 29 29 27 27 27 27 24 18 12 13 16 20 23 22 19 18 20 24 27 26 25 26 27 26 23 22 23 24 24 22 21 20 20 20
5 9 14 15 16 17 20 23 26 30 31 28 27 26 25 25 25 21 16 15 16 19 23 24 22 21 21 24 25 24 23 24 26 26 24 22 22 21 21 20 18 17 17 18
9 11 13 15 16 16 18 23 26 26 25 23 23 23 22 24 25 22 17 15 16 17 21 24 25 25 23 23 23 24 23 23 24 24 23 22 20 19 18 17 15 15 16 18
11 11 11 12 13 15 18 20 21 19 18 18 19 19 20 22 23 21 18 15 15 18 21 24 26 27 26 24 24 24 24 22 21 20 17 15 15 14 14 13 12 13 15 16
9 10 11 12 13 14 16 17 16 15 14 15 15 15 16 17 20 21 20 17 16 18 22 24 25 25 26 26 24 23 22 20 19 16 11 9 8 8 7 7 7 7 9 10
11 11 12 14 14 13 14 14 13 12 11 12 13 13 14 14 17 21 22 20 18 18 20 21 22 23 25 25 22 21 19 17 16 14 10 7 6 5 5 5 4 4 4 3
12 12 13 15 14 13 13 13 12 10 9 10 12 13 14 15 16 20 24 23 20 18 17 18 20 21 23 22 19 17 14 13 13 12 10 8 6 7 8 8 7 5 3 1
8 10 12 12 13 13 13 13 13 11 10 10 12 14 16 18 18 20 25 26 22 20 19 19 20 21 21 20 17 13 10 10 10 10 9 8 8 9 10 11 10 7 5 3
5 7 10 11 12 13 13 13 12 12 11 11 12 14 17 19 20 21 24 26 24 23 23 23 21 19 19 17 14 10 8 9 9 8 7 7 9 10 10 10 8 6 4 4
7 9 11 12 13 14 13 11 11 11 10 11 13 15 16 19 20 20 21 22 23 24 25 25 22 19 16 15 12 9 7 7 7 7 7 8 9 9 8 8 6 5 3 3
10 10 10 11 13 13 11 9 9 9 9 10 13 15 16 17 18 18 19 19 20 22 23 23 22 19 16 15 13 10 8 7 7 7 7 7 7 7 7 6 5 4 3 3
10 9 8 8 10 11 9 9 9 8 8 10 13 16 17 15 16 17 18 19 18 18 19 19 19 18 17 17 15 11 9 8 7 7 7 7 6 6 6 6 4 3 3 3
8 8 7 7 8 9 9 9 9 8 9 10 13 16 15 13 13 14 16 18 18 18 16 15 17 18 18 16 12 9 8 7 6 6 7 7 6 6 6 5 3 2 2 2
6 6 6 6 7 9 9 9 9 9 10 11 12 13 12 10 9 12 14 16 17 17 14 12 14 16 16 13 9 7 7 6 6 6 6 6 6 5 5 3 1 1 1 1
4 4 5 6 7 8 8 8 8 9 10 10 10 9 9 9 8 9 12 13 13 12 11 10 11 12 11 10 9 7 5 5 6 6 6 5 4 3 2 1 0 0 0 0
5 5 4 6 7 7 6 5 7 9 10 9 8 7 6 6 6 7 9 9 7 7 8 9 9 7 6 7 8 6 4 3 4 4 4 3 1 1 0 0 0 0 0 0
9 7 4 4 6 6 5 4 5 7 7 7 6 4 3 3 3 5 5 3 3 4 5 6 5 3 3 5 5 3 2 1 1 1 1 1 0 0 0 0 0 0 0 0
9 7 5 4 4 4 4 3 2 2 3 2 2 1 1 1 2 3 2 1 0 1 3 3 2 1 2 3 3 2 1 0 0 0 0 0 0 0 0 0 0 0 0 0
7 5 5 5 4 3 3 2 0 0 1 1 1 0 0 0 1 2 2 2 1 1 3 3 2 2 2 3 3 1 0 0 0 0 0 0 0 0 0 0 0 0 0 0
5 4 5 5 5 3 1 0 0 1 2 2 2 1 0 0 0 1 3 3 2 2 3 3 3 3 3 3 2 1 0 0 0 0 0 0 0 0 0 0 0 0 0 0
Wind_Speed
13 13 11 10 10 9 10 9 8 5 2 2 3 3 4 4 6 6 5 5 4 3 3 3 3 3 2 2 2 2 3 3 3 2 2 2 2 2 2 1 2 1 2 2
13 13 12 13 12 11 10 9 7 6 2 3 3 3 4 3 4 4 3 4 3 3 2 3 2 2 1 1 2 2 2 2 2 2 2 2 1 1 1 1 1 1 1 1
12 12 12 14 10 10 8 7 7 4 1 3 4 3 2 3 3 3 3 3 3 3 2 2 2 2 1 1 1 2 2 2 2 2 2 2 1 1 1 1 1 0 1 0
11 10 14 7 5 6 7 6 3 1 2 3 3 3 3 3 4 4 4 4 4 3 3 2 2 2 1 1 1 2 2 2 2 2 1 1 1 1 1 1 1 1 0 0
9 11 11 7 5 6 6 4 2 1 3 5 5 4 4 5 5 5 4 3 3 2 2 2 2 2 2 1 1 1 2 2 1 1 1 1 1 1 1 0 0 1 1 0
9 11 10 3 2 4 5 4 1 2 2 3 4 2 2 4 5 4 4 3 2 2 2 2 2 2 2 1 1 0 1 1 1 1 1 1 0 0 1 1 0 0 1 1
12 12 7 3 4 4 5 0 2 3 3 2 2 2 4 4 4 4 3 3 3 3 3 3 2 2 1 1 1 0 0 1 1 1 1 2 1 1 0 1 1 1 1 1
9 10 5 4 4 2 3 3 3 4 4 5 5 5 4 4 3 3 2 2 3 3 2 2 2 1 1 0 0 0 0 0 1 1 2 1 1 1 1 1 2 2 2 2
3 1 3 6 6 4 3 4 4 4 4 4 3 3 3 4 3 2 2 2 2 2 2 2 1 1 1 1 1 0 0 1 1 2 1 2 2 2 2 2 2 1 1 1
3 1 1 3 4 4 3 4 3 3 3 3 2 2 3 3 3 3 2 2 2 2 2 2 1 1 1 1 1 0 1 1 1 2 2 2 1 1 1 1 1 1 1 0
5 2 2 1 2 3 3 3 2 2 2 2 2 2 2 2 2 2 1 1 1 1 1 1 1 1 1 1 0 1 1 2 2 2 2 2 2 1 1 1 1 1 0 0
3 2 3 1 1 1 1 1 1 1 1 1 1 1 1 1 1 1 1 0 1 0 0 0 1 1 1 0 0 1 1 1 1 2 2 2 3 2 2 2 3 4 2 1
1 2 2 2 2 2 1 2 1 1 1 1 1 1 1 1 1 1 0 0 0 1 1 0 1 1 0 0 0 1 1 1 1 1 2 2 2 2 2 2 2 2 2 2
2 1 1 2 3 1 0 1 1 0 0 1 1 1 1 1 0 1 1 0 1 1 1 1 1 0 1 1 1 2 2 1 1 1 1 1 1 2 2 2 2 1 2 3
2 2 2 2 2 1 1 1 1 1 1 1 1 1 1 1 0 1 1 0 1 1 1 1 1 1 0 1 1 1 2 1 1 0 1 0 0 1 1 1 1 1 2 2
3 2 2 3 2 1 0 1 1 1 1 1 1 1 1 1 1 0 0 0 0 1 0 1 1 1 0 1 1 2 2 1 1 0 0 0 0 0 0 0 0 1 1 2
3 3 3 3 2 2 1 1 0 1 1 1 1 1 1 1 1 1 0 1 0 0 0 0 0 1 0 0 1 1 1 1 1 1 0 0 1 1 1 1 1 1 1 2
4 4 4 4 2 1 1 0 0 1 1 1 1 1 2 1 1 0 1 1 1 1 1 1 1 0 0 0 1 1 1 0 1 0 1 1 1 1 1 1 1 1 1 2
3 3 3 2 2 1 1 1 1 1 1 1 2 2 1 1 0 0 1 1 1 1 0 0 0 0 0 0 1 1 1 1 1 1 1 2 1 1 1 1 1 1 1 1
3 3 3 2 2 1 1 1 1 1 1 1 1 1 1 1 1 0 1 1 0 0 0 1 1 1 1 0 1 1 1 0 1 1 2 1 1 1 1 1 1 1 1 1
3 2 3 3 2 2 1 1 1 1 1 1 1 1 1 1 1 1 1 1 1 0 1 2 2 1 0 1 2 1 0 1 1 1 1 1 1 1 1 1 1 1 1 1
2 2 2 2 1 1 1 1 0 1 1 1 1 1 2 2 2 2 1 1 1 1 1 1 1 1 1 2 1 0 1 1 1 1 1 1 1 1 1 1 1 1 1 1
1 2 1 1 0 0 0 1 1 1 1 2 2 2 2 2 2 2 2 1 2 3 2 1 2 2 1 1 0 0 1 1 1 1 1 1 1 1 1 1 1 1 1 1
2 1 1 0 0 0 1 1 1 1 2 2 2 2 3 3 3 2 2 3 3 4 2 2 4 3 2 2 1 0 0 0 1 1 1 1 1 0 0 1 1 1 1 1
2 1 1 1 1 1 1 1 1 2 3 2 3 3 4 2 2 1 1 3 4 4 3 5 6 5 3 1 0 0 0 0 1 1 1 1 1 1 1 1 0 0 1 1
1 1 1 1 1 0 1 2 2 2 2 2 2 2 2 1 1 1 2 2 3 4 3 3 4 4 2 1 1 0 1 1 1 1 1 1 1 1 0 0 1 1 1 1
2 1 1 1 1 1 1 1 1 1 1 1 1 1 1 1 1 1 1 1 2 2 2 1 2 2 1 1 1 0 0 0 0 0 0 0 1 1 1 1 1 1 1 1
Wind_Direction
272 279 283 283 281 274 271 278 281 278 241 176 123 100 91 96 102 93 87 81 72 72 64 62 68 86 117 136 144 152 154 164 170 174 173 176 181 190 194 201 212 220 236 249
271 274 276 274 270 270 271 276 274 269 251 141 116 81 83 87 97 99 100 99 93 78 81 87 85 78 90 128 130 141 158 167 159 160 162 175 187 179 190 209 215 233 253 268
271 272 274 264 266 271 278 282 287 284 242 167 141 126 120 125 124 124 110 92 91 89 83 95 111 97 73 109 129 139 144 145 144 152 160 172 192 183 198 206 165 218 289 301
267 270 261 267 287 276 272 273 282 228 168 177 119 107 85 87 99 97 81 80 74 81 91 83 74 81 74 66 109 130 135 132 136 152 156 147 164 176 179 175 175 187 333 20
264 260 258 259 276 292 282 277 317 13 93 109 101 107 88 70 84 96 88 80 82 82 80 71 60 51 53 53 67 112 129 134 137 147 145 145 166 174 152 143 172 162 136 116
259 267 268 264 289 291 269 249 336 67 105 121 140 182 121 84 84 92 93 91 91 87 77 73 59 60 45 38 51 85 138 131 126 154 170 175 203 212 192 167 184 195 173 162
250 259 264 317 308 280 254 332 41 86 88 117 107 61 99 88 79 89 88 88 79 75 70 57 53 78 56 11 328 338 355 138 140 180 191 168 165 169 163 199 215 233 236 191
247 255 255 348 319 343 48 46 61 72 72 68 76 85 89 85 76 86 97 90 83 73 64 54 43 72 83 345 330 318 284 221 175 191 230 178 162 180 199 219 227 232 239 233
276 289 37 32 49 52 60 61 58 73 84 92 97 96 83 77 73 74 80 72 75 67 66 71 63 44 26 359 338 309 213 228 208 183 194 191 197 204 207 212 227 226 226 232
275 191 64 18 43 33 52 73 75 92 96 105 104 97 83 77 68 60 64 67 73 52 36 15 29 51 37 5 317 228 199 230 218 169 172 177 181 180 199 212 227 231 223 233
268 275 294 314 27 43 49 68 91 100 111 115 107 109 88 79 70 57 41 49 62 54 30 5 3 8 40 6 318 262 235 224 224 194 183 184 184 197 192 157 167 192 314 48
280 333 302 310 335 92 141 164 159 156 164 155 161 127 116 121 101 85 19 13 26 346 290 4 21 12 18 315 207 238 249 241 229 201 192 190 174 148 71 102 143 141 148 163
346 317 321 346 305 281 234 220 231 217 171 153 125 119 130 146 145 136 127 221 176 267 268 240 180 154 157 221 224 241 258 255 263 237 210 204 187 176 163 117 101 128 152 146
43 24 299 284 276 266 227 215 230 224 211 176 134 133 138 128 135 105 90 199 195 201 241 257 218 205 243 187 216 255 261 250 252 244 242 234 193 184 190 184 176 133 131 137
231 237 245 247 253 211 220 213 196 189 183 151 138 143 140 109 64 65 59 229 198 228 261 283 289 283 237 226 208 234 265 278 261 270 262 242 161 180 192 180 162 152 128 115
204 205 214 212 211 213 251 286 251 191 169 155 148 154 145 140 159 131 52 340 247 257 274 296 311 310 282 260 238 221 225 233 247 262 267 29 77 210 111 120 128 104 112 104
182 199 207 197 208 220 237 277 282 154 156 173 160 141 146 173 179 158 182 294 342 344 349 14 349 358 7 295 277 270 260 165 181 227 297 0 48 42 50 76 68 68 85 109
204 207 205 197 194 202 232 206 107 106 120 116 128 187 205 216 240 220 167 143 96 64 35 17 18 49 135 75 289 275 270 198 171 136 77 66 62 56 53 59 56 49 64 107
174 166 159 159 162 175 177 137 99 93 117 166 205 217 213 212 174 307 132 133 155 160 131 38 302 150 143 209 283 243 253 226 152 110 102 96 92 54 42 43 46 39 32 76
135 137 141 129 124 95 101 121 129 142 168 194 206 189 175 200 182 202 141 145 203 270 184 174 179 196 231 329 291 262 263 258 82 79 77 81 80 69 41 33 34 32 42 46
135 132 110 96 90 77 63 71 143 177 190 207 207 202 204 223 222 225 227 202 121 139 196 172 178 194 169 328 261 262 301 80 87 79 69 65 82 66 42 26 16 29 41 34
138 128 112 103 104 76 41 29 18 244 228 229 251 244 230 229 232 222 207 212 175 152 196 175 137 87 355 290 262 357 29 29 19 57 103 117 119 88 58 39 49 45 50 50
141 116 100 74 106 89 358 304 276 263 250 246 251 262 266 266 264 246 217 178 161 158 176 142 115 126 154 221 293 14 16 4 356 352 38 80 71 68 76 75 74 76 61 39
114 113 125 283 305 228 249 275 293 257 238 240 240 248 257 249 235 222 171 150 159 166 164 144 147 157 190 237 222 162 122 318 325 333 7 47 58 61 51 71 71 57 20 328
140 149 185 215 245 243 218 219 233 234 232 226 226 232 244 248 260 245 151 154 161 172 174 161 173 182 196 228 94 50 61 12 350 352 38 34 15 22 32 35 30 327 304 303
154 220 225 241 285 287 228 225 235 235 241 244 244 251 256 201 185 196 198 195 174 170 181 164 165 176 179 136 109 88 45 64 46 26 33 40 28 19 36 247 263 269 300 1
167 173 203 259 251 280 295 280 271 264 259 249 247 240 239 218 191 207 216 198 167 165 167 155 141 139 135 129 128 129 94 57 38 22 30 355 342 334 345 356 7 23 24 33